Terug naar catalogus

STARLINK-5184

ActiefCommunicatieVLEO
NORAD 54087·PAYLOAD·🇺🇸 United States

Gelanceerd Oct 20, 2022 vanaf Cape Canaveral Space Force Station

Loading…

Volgende Passages (komende 24 uur)

TLE

VersSource: CelesTrak SupGP

Epoch: Sep 15, 2026, 01:58 UTC

1 54087C 22136AN  26258.08243056  .00258890  00000+0  12157-1 0  2585
2 54087  53.1608 202.5995 0001322  86.4234 347.3207 15.18983434    19

Volg STARLINK-5184 in realtime met AllMySat

Download on the App Store